When you browse on this site, cookies collect data to enhance your experience and personalize the content and advertising you see.
Visit our Privacy Policy to learn more. By continuing to use the site, you agree to this use of cookies and data.
  • In Hungary
  • List of Countries
  • For 7 days
  • Water Temperature
  • Weather Map
  • News
  • Weather Widgets
  • user-avatar
    Login

    Hourly Weather Leonovo

    Today, 25 January, Saturday

    Time Temperature Precipitation Wind Pressure Humidity
    00:00 0°C° 0.1 mm 5 mps 733 mmHg 94%
    01:00 0°C° 0.1 mm 5 mps 733 mmHg 93%
    02:00 0°C° 0.1 mm 5 mps 733 mmHg 91%
    03:00 -1°C° 0 mm 5 mps 733 mmHg 90%
    04:00 -1°C° 0 mm 4 mps 733 mmHg 89%
    05:00 -1°C° 0 mm 4 mps 733 mmHg 88%
    06:00 -1°C° 0 mm 4 mps 733 mmHg 90%
    07:00 -1°C° 0 mm 4 mps 733 mmHg 91%
    08:00 -1°C° 0 mm 4 mps 733 mmHg 88%
    09:00 -1°C° 0 mm 5 mps 733 mmHg 87%
    10:00 -1°C° 0 mm 6 mps 732 mmHg 86%
    11:00 -1°C° 0 mm 6 mps 732 mmHg 84%
    12:00 -1°C° 0.2 mm 6 mps 732 mmHg 81%
    13:00 -1°C° 0.2 mm 7 mps 732 mmHg 77%
    14:00 -2°C° 0.2 mm 7 mps 732 mmHg 73%
    15:00 -2°C° 0 mm 7 mps 732 mmHg 74%
    16:00 -3°C° 0 mm 6 mps 733 mmHg 75%
    17:00 -4°C° 0 mm 6 mps 734 mmHg 75%
    18:00 -4°C° 0 mm 6 mps 734 mmHg 75%
    19:00 -4°C° 0 mm 6 mps 734 mmHg 76%
    20:00 -4°C° 0 mm 6 mps 735 mmHg 76%
    21:00 -4°C° 0 mm 6 mps 736 mmHg 78%
    22:00 -5°C° 0 mm 6 mps 736 mmHg 79%
    23:00 -5°C° 0 mm 6 mps 737 mmHg 81%

    Tomorrow, 26 January, Sunday

    Time Temperature Precipitation Wind Pressure Humidity
    00:00 -5°C° 0 mm 6 mps 738 mmHg 80%
    01:00 -5°C° 0 mm 5 mps 739 mmHg 80%
    02:00 -5°C° 0 mm 5 mps 739 mmHg 80%
    03:00 -5°C° 0 mm 5 mps 740 mmHg 80%
    04:00 -4°C° 0 mm 4 mps 741 mmHg 81%
    05:00 -5°C° 0 mm 4 mps 741 mmHg 81%
    06:00 -5°C° 0 mm 4 mps 742 mmHg 82%
    07:00 -5°C° 0 mm 4 mps 742 mmHg 84%
    08:00 -5°C° 0 mm 3 mps 743 mmHg 85%
    09:00 -5°C° 0 mm 4 mps 743 mmHg 83%
    10:00 -4°C° 0 mm 4 mps 743 mmHg 81%
    11:00 -3°C° 0 mm 4 mps 744 mmHg 79%
    12:00 -3°C° 0 mm 4 mps 743 mmHg 79%
    13:00 -4°C° 0 mm 5 mps 743 mmHg 78%
    14:00 -4°C° 0 mm 5 mps 742 mmHg 77%
    15:00 -3°C° 0.2 mm 6 mps 742 mmHg 83%
    16:00 -3°C° 0.2 mm 6 mps 741 mmHg 88%
    17:00 -3°C° 0.2 mm 6 mps 741 mmHg 93%
    18:00 -2°C° 0.1 mm 6 mps 740 mmHg 93%
    19:00 -2°C° 0.1 mm 6 mps 740 mmHg 92%
    20:00 -1°C° 0.1 mm 6 mps 740 mmHg 92%
    21:00 +1°C° 0 mm 6 mps 740 mmHg 92%
    22:00 +1°C° 0 mm 6 mps 740 mmHg 92%
    23:00 +1°C° 0 mm 6 mps 740 mmHg 92%

    Day after tomorrow, 27 January, Monday

    Time Temperature Precipitation Wind Pressure Humidity
    00:00 +1°C° 0 mm 6 mps 740 mmHg 92%
    01:00 +1°C° 0 mm 5 mps 740 mmHg 92%
    02:00 +1°C° 0 mm 5 mps 740 mmHg 92%
    03:00 +1°C° 0 mm 5 mps 741 mmHg 94%
    04:00 +1°C° 0 mm 5 mps 741 mmHg 95%
    05:00 +1°C° 0 mm 4 mps 741 mmHg 96%
    06:00 +1°C° 0.1 mm 4 mps 741 mmHg 97%
    07:00 0°C° 0.1 mm 4 mps 742 mmHg 97%
    08:00 +1°C° 0.1 mm 3 mps 742 mmHg 97%
    09:00 +1°C° 0 mm 3 mps 742 mmHg 97%
    10:00 +1°C° 0 mm 3 mps 743 mmHg 97%
    11:00 +2°C° 0 mm 2 mps 743 mmHg 97%
    12:00 +2°C° 0.1 mm 2 mps 743 mmHg 97%
    13:00 +2°C° 0.1 mm 2 mps 743 mmHg 97%
    14:00 +2°C° 0.1 mm 2 mps 743 mmHg 97%
    15:00 +2°C° 0.2 mm 2 mps 743 mmHg 98%
    16:00 +2°C° 0.2 mm 2 mps 743 mmHg 98%
    17:00 +2°C° 0.2 mm 2 mps 743 mmHg 98%
    18:00 +2°C° 0.3 mm 2 mps 743 mmHg 98%
    19:00 +2°C° 0.3 mm 2 mps 743 mmHg 98%
    20:00 +2°C° 0.3 mm 2 mps 743 mmHg 98%
    21:00 +2°C° 0.3 mm 2 mps 743 mmHg 98%
    22:00 +2°C° 0.3 mm 2 mps 743 mmHg 98%
    23:00 +2°C° 0.3 mm 2 mps 743 mmHg 98%

    28 January, Tuesday

    Time Temperature Precipitation Wind Pressure Humidity
    00:00 +1°C° 0.2 mm 2 mps 742 mmHg 98%
    01:00 +1°C° 0.2 mm 2 mps 742 mmHg 98%
    02:00 +1°C° 0.2 mm 2 mps 742 mmHg 98%
    03:00 +1°C° 0.1 mm 2 mps 742 mmHg 98%
    04:00 +1°C° 0.1 mm 2 mps 741 mmHg 98%
    05:00 +1°C° 0.1 mm 2 mps 741 mmHg 98%
    06:00 +1°C° 0.2 mm 2 mps 741 mmHg 98%
    07:00 +1°C° 0.2 mm 2 mps 741 mmHg 98%
    08:00 +1°C° 0.2 mm 2 mps 741 mmHg 98%
    09:00 +1°C° 0.1 mm 2 mps 741 mmHg 98%
    10:00 +1°C° 0.1 mm 2 mps 741 mmHg 98%
    11:00 +1°C° 0.1 mm 2 mps 741 mmHg 97%
    12:00 +1°C° 0 mm 2 mps 741 mmHg 97%
    13:00 +1°C° 0 mm 2 mps 741 mmHg 97%
    14:00 +1°C° 0 mm 2 mps 741 mmHg 97%
    15:00 +1°C° 0 mm 2 mps 741 mmHg 97%
    16:00 +1°C° 0 mm 2 mps 741 mmHg 96%
    17:00 -1°C° 0 mm 2 mps 741 mmHg 96%
    18:00 -1°C° 0 mm 2 mps 741 mmHg 96%
    19:00 -1°C° 0 mm 2 mps 741 mmHg 96%
    20:00 -1°C° 0 mm 2 mps 741 mmHg 96%
    21:00 -1°C° 0 mm 2 mps 741 mmHg 95%
    22:00 -1°C° 0 mm 2 mps 741 mmHg 94%
    23:00 -1°C° 0 mm 2 mps 741 mmHg 94%

    29 January, Wednesday

    Time Temperature Precipitation Wind Pressure Humidity
    00:00 -1°C° 0 mm 2 mps 741 mmHg 95%
    01:00 -1°C° 0 mm 2 mps 740 mmHg 96%
    02:00 -1°C° 0 mm 2 mps 740 mmHg 97%
    03:00 -1°C° 0 mm 3 mps 740 mmHg 96%
    04:00 -1°C° 0 mm 3 mps 740 mmHg 96%
    05:00 -1°C° 0 mm 3 mps 740 mmHg 96%
    06:00 -1°C° 0 mm 3 mps 739 mmHg 95%
    07:00 -2°C° 0 mm 4 mps 739 mmHg 93%
    08:00 -2°C° 0 mm 4 mps 739 mmHg 92%
    09:00 -1°C° 0 mm 4 mps 739 mmHg 91%
    10:00 -1°C° 0 mm 4 mps 739 mmHg 90%
    11:00 -1°C° 0 mm 4 mps 739 mmHg 89%
    12:00 -1°C° 0 mm 4 mps 739 mmHg 90%
    13:00 -1°C° 0 mm 4 mps 738 mmHg 91%
    14:00 -1°C° 0 mm 4 mps 738 mmHg 92%
    15:00 0°C° 0 mm 4 mps 738 mmHg 94%
    16:00 0°C° 0 mm 4 mps 738 mmHg 95%
    17:00 0°C° 0 mm 4 mps 737 mmHg 97%
    18:00 0°C° 0.1 mm 4 mps 737 mmHg 97%
    19:00 0°C° 0.1 mm 5 mps 737 mmHg 97%
    20:00 0°C° 0.1 mm 5 mps 736 mmHg 97%
    21:00 0°C° 0 mm 5 mps 736 mmHg 95%
    22:00 0°C° 0 mm 5 mps 735 mmHg 93%
    23:00 0°C° 0 mm 5 mps 735 mmHg 91%

    30 January, Thursday

    Time Temperature Precipitation Wind Pressure Humidity
    00:00 0°C° 0.2 mm 5 mps 734 mmHg 93%
    01:00 0°C° 0.2 mm 5 mps 734 mmHg 95%
    02:00 0°C° 0.2 mm 5 mps 733 mmHg 96%
    03:00 0°C° 0.4 mm 5 mps 733 mmHg 97%
    04:00 0°C° 0.4 mm 5 mps 733 mmHg 97%
    05:00 0°C° 0.4 mm 5 mps 732 mmHg 97%
    06:00 -1°C° 0.4 mm 5 mps 732 mmHg 95%
    07:00 -1°C° 0.4 mm 5 mps 733 mmHg 92%
    08:00 -2°C° 0.4 mm 5 mps 733 mmHg 90%
    09:00 -2°C° 0 mm 5 mps 733 mmHg 87%
    10:00 -1°C° 0 mm 5 mps 733 mmHg 83%
    11:00 -1°C° 0 mm 5 mps 734 mmHg 80%
    12:00 -1°C° 0 mm 5 mps 734 mmHg 82%
    13:00 -2°C° 0 mm 5 mps 734 mmHg 83%
    14:00 -3°C° 0 mm 6 mps 734 mmHg 84%
    15:00 -3°C° 0 mm 6 mps 734 mmHg 86%
    16:00 -3°C° 0 mm 6 mps 734 mmHg 87%
    17:00 -3°C° 0 mm 6 mps 734 mmHg 88%
    18:00 -2°C° 0 mm 6 mps 734 mmHg 88%
    19:00 -2°C° 0 mm 6 mps 734 mmHg 88%
    20:00 -2°C° 0 mm 6 mps 734 mmHg 88%
    21:00 -1°C° 0.1 mm 5 mps 734 mmHg 90%
    22:00 -2°C° 0.1 mm 5 mps 734 mmHg 93%
    23:00 -2°C° 0.1 mm 5 mps 734 mmHg 95%
    Show more